This demonstration page uses our WeatherBlox Daily Observations layout. Learn more.

Left ArrowRight Arrow

Hourly Observations for January 19, 2017

Temp ( °F °C ) Dew Point ( °F °C ) Humidity (%) Winds ( mph kmh ) Pressure ( in mb ) Visibility ( mi km ) Precip ( " mm )
12:15 am 00:15 Cloudy 36 2 34 1 93 93 SSW 5 7 30.18 1022 7 11 N/A
12:36 am 00:36 Cloudy 36 2 34 1 93 93 S 6 9 30.18 1022 10 16 N/A
12:55 am 00:55 Cloudy 36 2 34 1 93 93 SW 7 11 30.18 1022 10 16 N/A
1:36 am 01:36 Cloudy 36 2 34 1 93 93 S 7 11 30.18 1022 10 16 N/A
1:55 am 01:55 Cloudy 36 2 34 1 93 93 SW 7 11 30.18 1022 10 16 N/A
2:15 am 02:15 Cloudy 36 2 34 1 93 93 S 6 9 30.15 1021 7 11 N/A
2:36 am 02:36 Cloudy 36 2 34 1 93 93 N N/A 30.15 1021 7 11 N/A
2:55 am 02:55 Cloudy 36 2 34 1 93 93 N N/A 30.15 1021 7 11 N/A
3:15 am 03:15 Cloudy 36 2 34 1 93 93 S 3 6 30.18 1022 7 11 N/A
3:36 am 03:36 Cloudy 36 2 34 1 93 93 S 6 9 30.15 1021 7 11 N/A
3:55 am 03:55 Cloudy 36 2 34 1 93 93 N N/A 30.18 1022 7 11 N/A
4:16 am 04:16 Cloudy 36 2 34 1 93 93 N N/A 30.15 1021 7 11 N/A
4:36 am 04:36 Cloudy 36 2 34 1 93 93 N N/A 30.15 1021 5 8 N/A
4:55 am 04:55 Cloudy 36 2 34 1 93 93 N N/A 30.15 1021 7 11 N/A
5:16 am 05:16 Cloudy 36 2 34 1 93 93 N N/A 30.15 1021 7 11 N/A
5:35 am 05:35 Cloudy 36 2 34 1 93 93 SE 5 7 30.12 1020 7 11 N/A
5:55 am 05:55 Cloudy 36 2 34 1 93 93 SE 3 6 30.12 1020 5 8 N/A
6:16 am 06:16 Cloudy 36 2 34 1 93 93 ESE 3 6 30.12 1020 5 8 N/A
6:35 am 06:35 Cloudy 34 1 34 1 100 100 E 3 6 30.12 1020 5 8 N/A
6:55 am 06:55 Cloudy 36 2 34 1 93 93 S 3 6 30.15 1021 4 6 N/A
7:16 am 07:16 Cloudy 36 2 34 1 93 93 N N/A 30.12 1020 4 6 N/A
7:35 am 07:35 Cloudy 36 2 34 1 93 93 SE 3 6 30.15 1021 4 6 N/A
7:56 am 07:56 Cloudy 36 2 34 1 93 93 SE 6 9 30.12 1020 3 5 N/A
8:15 am 08:15 Cloudy 36 2 34 1 93 93 SE 5 7 30.12 1020 3 5 N/A
8:35 am 08:35 Cloudy 36 2 34 1 93 93 SE 6 9 30.12 1020 3 4 N/A
8:56 am 08:56 Cloudy 36 2 34 1 93 93 ESE 8 13 30.09 1019 2 2 N/A
9:15 am 09:15 Cloudy 36 2 36 2 100 100 SE 8 13 30.09 1019 2 2 N/A
9:35 am 09:35 Cloudy 36 2 36 2 100 100 SSE 6 9 30.12 1020 2 3 N/A
9:56 am 09:56 Cloudy 37 3 36 2 93 93 SSE 7 11 30.09 1019 3 4 N/A
10:15 am 10:15 Cloudy 37 3 36 2 93 93 SE 9 15 30.09 1019 3 5 N/A
10:35 am 10:35 Cloudy 37 3 36 2 93 93 SE 8 13 30.09 1019 3 5 N/A
10:55 am 10:55 Cloudy 39 4 37 3 93 93 SE 7 11 30.06 1018 4 6 N/A
11:16 am 11:16 Mostly Cloudy 39 4 37 3 93 93 ESE 7 11 30.03 1017 5 8 N/A
11:35 am 11:35 Partly Cloudy 41 5 37 3 87 87 ESE 6 9 30.03 1017 5 8 N/A
11:55 am 11:55 Mostly Cloudy 41 5 37 3 87 87 ESE 8 13 30.03 1017 5 8 N/A
12:16 pm 12:16 Partly Cloudy 41 5 39 4 93 93 SE 7 11 30.03 1017 5 8 N/A
12:35 pm 12:35 Partly Cloudy 43 6 39 4 87 87 SSE 8 13 30.03 1017 7 11 N/A
12:55 pm 12:55 Partly Cloudy 43 6 39 4 87 87 SSE 7 11 30.03 1017 7 11 N/A
1:16 pm 13:16 Sunny 43 6 39 4 87 87 SE 8 13 30.00 1016 7 11 N/A
1:35 pm 13:35 Partly Cloudy 43 6 39 4 87 87 SE 6 9 29.97 1015 7 11 N/A
1:56 pm 13:56 Partly Cloudy 43 6 39 4 87 87 SE 7 11 29.97 1015 10 16 N/A
2:15 pm 14:15 Sunny 43 6 39 4 87 87 ESE 7 11 29.94 1014 10 16 N/A
2:35 pm 14:35 Partly Cloudy 45 7 39 4 81 81 SE 5 7 29.94 1014 10 16 N/A
2:56 pm 14:56 Cloudy 45 7 39 4 81 81 SE 6 9 29.94 1014 10 16 N/A
3:15 pm 15:15 Cloudy 45 7 41 5 87 87 ESE 5 7 29.91 1013 10 16 N/A
3:35 pm 15:35 Mostly Cloudy 45 7 39 4 81 81 ESE 7 11 29.91 1013 10 16 N/A
3:56 pm 15:56 Cloudy 45 7 39 4 81 81 ESE 9 15 29.91 1013 10 16 N/A
4:15 pm 16:15 Cloudy 45 7 39 4 81 81 E 7 11 29.91 1013 10 16 N/A
4:35 pm 16:35 Cloudy 45 7 39 4 81 81 E 9 15 29.88 1012 10 16 N/A
5:15 pm 17:15 Mostly Cloudy 43 6 41 5 93 93 E 10 17 29.85 1011 10 16 N/A
5:35 pm 17:35 Mostly Cloudy 43 6 39 4 87 87 E 8 13 29.88 1012 10 16 N/A
5:55 pm 17:55 Cloudy 43 6 39 4 87 87 E 9 15 29.88 1012 10 16 N/A
6:15 pm 18:15 Cloudy 43 6 39 4 87 87 ESE 7 11 29.88 1012 10 16 N/A
6:35 pm 18:35 Cloudy 45 7 39 4 81 81 ESE 5 7 29.88 1012 10 16 N/A
6:55 pm 18:55 Cloudy 45 7 39 4 81 81 N N/A 29.88 1012 10 16 N/A
7:16 pm 19:16 Cloudy 43 6 39 4 87 87 E 7 11 29.88 1012 7 11 N/A
7:35 pm 19:35 Cloudy 43 6 41 5 93 93 E 10 17 29.85 1011 5 8 N/A
7:55 pm 19:55 Cloudy 43 6 41 5 93 93 E 9 15 29.85 1011 5 8 N/A
8:16 pm 20:16 Cloudy 43 6 41 5 93 93 E 8 13 29.85 1011 4 6 N/A
8:35 pm 20:35 Cloudy 43 6 41 5 93 93 E 9 15 29.83 1010 4 6 N/A
8:55 pm 20:55 Cloudy 43 6 41 5 93 93 E 9 15 29.83 1010 4 6 N/A
9:15 pm 21:15 Cloudy 43 6 41 5 93 93 E 7 11 29.83 1010 5 8 N/A
9:35 pm 21:35 Cloudy 43 6 41 5 93 93 E 8 13 29.80 1009 4 6 N/A
9:55 pm 21:55 Cloudy 43 6 43 6 100 100 ESE 8 13 29.80 1009 4 6 N/A
10:15 pm 22:15 Cloudy 43 6 43 6 100 100 ESE 9 15 29.80 1009 5 8 N/A
10:35 pm 22:35 Cloudy 43 6 43 6 100 100 ESE 9 15 29.77 1008 4 6 N/A
10:56 pm 22:56 Cloudy 43 6 43 6 100 100 ESE 9 15 29.77 1008 5 8 N/A
11:15 pm 23:15 Cloudy 43 6 43 6 100 100 ESE 8 13 29.74 1007 5 8 N/A
11:35 pm 23:35 Cloudy 43 6 43 6 100 100 ESE 10 17 29.74 1007 7 11 N/A
11:56 pm 23:56 Cloudy 43 6 43 6 100 100 ESE 8 13 29.74 1007 7 11 N/A

Powered by AerisWeather